When you browse on this site, cookies collect data to enhance your experience and personalize the content and advertising you see.
Visit our Privacy Policy to learn more. By continuing to use the site, you agree to this use of cookies and data.
  • în România
  • Lista ţărilor
  • Pe 7 zile
  • Temperatura apei
  • Hartă satelitară
  • Meteo pe hartă
  • Widget-uri
  • user-avatar
    Intrare

    Meteo pe oră la Memphis

    Astăzi, 16 Februarie, Sâmbătă

    Timp Temperatura Precipitaţii Vânt Presiune Umiditate
    00:00 -2°C° 0 mm 6 m/s 752 mmHg 84%
    01:00 -2°C° 0 mm 6 m/s 753 mmHg 84%
    02:00 -3°C° 0 mm 6 m/s 753 mmHg 84%
    03:00 -2°C° 0 mm 5 m/s 753 mmHg 84%
    04:00 -2°C° 0 mm 5 m/s 754 mmHg 83%
    05:00 -2°C° 0 mm 5 m/s 754 mmHg 83%
    06:00 -4°C° 0 mm 5 m/s 754 mmHg 82%
    07:00 -2°C° 0 mm 5 m/s 754 mmHg 79%
    08:00 -2°C° 0 mm 4 m/s 755 mmHg 76%
    09:00 -2°C° 0 mm 4 m/s 755 mmHg 72%
    10:00 0°C° 0 mm 4 m/s 754 mmHg 69%
    11:00 +1°C° 0 mm 4 m/s 754 mmHg 66%
    12:00 +4°C° 0 mm 3 m/s 754 mmHg 62%
    13:00 +5°C° 0 mm 3 m/s 753 mmHg 62%
    14:00 +7°C° 0 mm 3 m/s 753 mmHg 62%
    15:00 +8°C° 0 mm 3 m/s 752 mmHg 62%
    16:00 +7°C° 0 mm 3 m/s 752 mmHg 66%
    17:00 +7°C° 0 mm 2 m/s 752 mmHg 71%
    18:00 +6°C° 0 mm 2 m/s 752 mmHg 75%
    19:00 +6°C° 0 mm 2 m/s 751 mmHg 76%
    20:00 +6°C° 0 mm 2 m/s 751 mmHg 77%
    21:00 +5°C° 0 mm 3 m/s 751 mmHg 79%
    22:00 +6°C° 0.1 mm 2 m/s 751 mmHg 80%
    23:00 +6°C° 0.1 mm 2 m/s 750 mmHg 81%

    Mâine, 17 Februarie, Duminică

    Timp Temperatura Precipitaţii Vânt Presiune Umiditate
    00:00 +7°C° 0.1 mm 1 m/s 750 mmHg 83%
    01:00 +7°C° 0.2 mm 2 m/s 749 mmHg 85%
    02:00 +7°C° 0.2 mm 2 m/s 749 mmHg 86%
    03:00 +7°C° 0.2 mm 2 m/s 748 mmHg 88%
    04:00 +8°C° 0.1 mm 1 m/s 748 mmHg 90%
    05:00 +8°C° 0.1 mm 1 m/s 748 mmHg 91%
    06:00 +7°C° 0.1 mm 0 m/s 748 mmHg 93%
    07:00 +9°C° 0.1 mm 1 m/s 748 mmHg 93%
    08:00 +9°C° 0.1 mm 1 m/s 748 mmHg 93%
    09:00 +9°C° 0.1 mm 1 m/s 749 mmHg 93%
    10:00 +10°C° 0 mm 3 m/s 749 mmHg 89%
    11:00 +12°C° 0 mm 4 m/s 749 mmHg 85%
    12:00 +14°C° 0 mm 5 m/s 749 mmHg 81%
    13:00 +14°C° 0 mm 5 m/s 749 mmHg 77%
    14:00 +14°C° 0 mm 5 m/s 750 mmHg 72%
    15:00 +14°C° 0 mm 6 m/s 750 mmHg 68%
    16:00 +13°C° 0 mm 5 m/s 751 mmHg 71%
    17:00 +11°C° 0 mm 4 m/s 751 mmHg 74%
    18:00 +10°C° 0 mm 4 m/s 752 mmHg 77%
    19:00 +8°C° 0 mm 4 m/s 753 mmHg 74%
    20:00 +7°C° 0 mm 5 m/s 754 mmHg 72%
    21:00 +5°C° 0 mm 5 m/s 755 mmHg 70%
    22:00 +5°C° 0 mm 5 m/s 756 mmHg 70%
    23:00 +3°C° 0 mm 5 m/s 757 mmHg 70%

    Poimâine, 18 Februarie, Luni

    Timp Temperatura Precipitaţii Vânt Presiune Umiditate
    00:00 +2°C° 0 mm 5 m/s 758 mmHg 70%
    01:00 +1°C° 0 mm 4 m/s 758 mmHg 71%
    02:00 +1°C° 0 mm 4 m/s 759 mmHg 71%
    03:00 0°C° 0 mm 4 m/s 759 mmHg 71%
    04:00 0°C° 0 mm 4 m/s 760 mmHg 72%
    05:00 -1°C° 0 mm 4 m/s 760 mmHg 73%
    06:00 0°C° 0 mm 3 m/s 760 mmHg 75%
    07:00 0°C° 0 mm 3 m/s 761 mmHg 73%
    08:00 +1°C° 0 mm 3 m/s 762 mmHg 72%
    09:00 +1°C° 0 mm 3 m/s 763 mmHg 70%
    10:00 +2°C° 0 mm 3 m/s 763 mmHg 65%
    11:00 +4°C° 0 mm 3 m/s 763 mmHg 60%
    12:00 +7°C° 0 mm 3 m/s 763 mmHg 55%
    13:00 +7°C° 0 mm 3 m/s 763 mmHg 54%
    14:00 +7°C° 0 mm 4 m/s 762 mmHg 54%
    15:00 +7°C° 0 mm 4 m/s 762 mmHg 53%
    16:00 +7°C° 0 mm 4 m/s 762 mmHg 56%
    17:00 +6°C° 0 mm 4 m/s 762 mmHg 60%
    18:00 +5°C° 0 mm 4 m/s 762 mmHg 63%
    19:00 +5°C° 0 mm 4 m/s 762 mmHg 65%
    20:00 +3°C° 0 mm 5 m/s 763 mmHg 68%
    21:00 +3°C° 0 mm 5 m/s 763 mmHg 71%
    22:00 +3°C° 0 mm 5 m/s 763 mmHg 73%
    23:00 +2°C° 0 mm 5 m/s 764 mmHg 74%

    19 Februarie, Marţi

    Timp Temperatura Precipitaţii Vânt Presiune Umiditate
    00:00 +3°C° 0 mm 4 m/s 764 mmHg 76%
    01:00 +2°C° 0 mm 5 m/s 763 mmHg 76%
    02:00 +1°C° 0 mm 5 m/s 763 mmHg 76%
    03:00 +1°C° 0 mm 5 m/s 762 mmHg 77%
    04:00 +1°C° 0 mm 5 m/s 762 mmHg 76%
    05:00 +1°C° 0 mm 5 m/s 762 mmHg 75%
    06:00 +1°C° 0 mm 5 m/s 762 mmHg 75%
    07:00 +1°C° 0 mm 5 m/s 762 mmHg 75%
    08:00 +2°C° 0 mm 5 m/s 762 mmHg 75%
    09:00 +2°C° 0 mm 5 m/s 762 mmHg 76%
    10:00 +3°C° 0.2 mm 5 m/s 761 mmHg 77%
    11:00 +3°C° 0.2 mm 5 m/s 761 mmHg 79%
    12:00 +5°C° 0.2 mm 5 m/s 760 mmHg 80%
    13:00 +6°C° 0.3 mm 5 m/s 759 mmHg 82%
    14:00 +6°C° 0.3 mm 5 m/s 757 mmHg 83%
    15:00 +7°C° 0.3 mm 6 m/s 756 mmHg 85%
    16:00 +7°C° 1.5 mm 5 m/s 756 mmHg 87%
    17:00 +7°C° 1.5 mm 4 m/s 755 mmHg 90%
    18:00 +7°C° 1.5 mm 4 m/s 755 mmHg 93%
    19:00 +7°C° 0.8 mm 4 m/s 755 mmHg 94%
    20:00 +8°C° 0.8 mm 4 m/s 754 mmHg 94%
    21:00 +8°C° 0.8 mm 4 m/s 754 mmHg 94%
    22:00 +9°C° 0.4 mm 3 m/s 753 mmHg 95%
    23:00 +9°C° 0.4 mm 2 m/s 753 mmHg 96%

    20 Februarie, Miercuri

    Timp Temperatura Precipitaţii Vânt Presiune Umiditate
    00:00 +10°C° 0.4 mm 1 m/s 752 mmHg 96%
    01:00 +10°C° 0.3 mm 1 m/s 752 mmHg 97%
    02:00 +10°C° 0.3 mm 1 m/s 751 mmHg 97%
    03:00 +10°C° 0.3 mm 1 m/s 751 mmHg 97%
    04:00 +10°C° 0.1 mm 1 m/s 751 mmHg 97%
    05:00 +9°C° 0.1 mm 2 m/s 751 mmHg 97%
    06:00 +8°C° 0.1 mm 2 m/s 751 mmHg 97%
    07:00 +8°C° 0 mm 2 m/s 752 mmHg 95%
    08:00 +8°C° 0 mm 3 m/s 752 mmHg 93%
    09:00 +8°C° 0 mm 3 m/s 753 mmHg 92%
    10:00 +10°C° 0 mm 3 m/s 753 mmHg 87%
    11:00 +12°C° 0 mm 2 m/s 753 mmHg 82%
    12:00 +13°C° 0 mm 2 m/s 753 mmHg 78%
    13:00 +13°C° 0.2 mm 2 m/s 753 mmHg 80%
    14:00 +12°C° 0.2 mm 3 m/s 753 mmHg 81%
    15:00 +11°C° 0.2 mm 3 m/s 752 mmHg 83%
    16:00 +11°C° 0.1 mm 3 m/s 753 mmHg 85%
    17:00 +11°C° 0.1 mm 3 m/s 753 mmHg 87%
    18:00 +10°C° 0.1 mm 2 m/s 754 mmHg 89%
    19:00 +10°C° 0 mm 2 m/s 754 mmHg 90%
    20:00 +10°C° 0 mm 2 m/s 754 mmHg 91%
    21:00 +10°C° 0 mm 2 m/s 755 mmHg 92%
    22:00 +10°C° 0 mm 2 m/s 755 mmHg 93%
    23:00 +10°C° 0 mm 2 m/s 755 mmHg 93%

    21 Februarie, Joi

    Timp Temperatura Precipitaţii Vânt Presiune Umiditate
    00:00 +9°C° 0 mm 3 m/s 755 mmHg 93%
    01:00 +9°C° 0 mm 3 m/s 756 mmHg 93%
    02:00 +8°C° 0 mm 3 m/s 756 mmHg 92%
    03:00 +7°C° 0 mm 4 m/s 756 mmHg 91%
    04:00 +6°C° 0 mm 4 m/s 756 mmHg 91%
    05:00 +6°C° 0 mm 4 m/s 757 mmHg 90%
    06:00 +5°C° 0 mm 4 m/s 757 mmHg 89%
    07:00 +5°C° 0 mm 5 m/s 757 mmHg 87%
    08:00 +6°C° 0 mm 5 m/s 758 mmHg 85%
    09:00 +6°C° 0 mm 5 m/s 758 mmHg 82%
    10:00 +6°C° 0.7 mm 5 m/s 758 mmHg 83%
    11:00 +6°C° 0.7 mm 5 m/s 758 mmHg 84%
    12:00 +5°C° 0.7 mm 5 m/s 758 mmHg 86%
    13:00 +4°C° 5.1 mm 6 m/s 758 mmHg 87%
    14:00 +4°C° 5.1 mm 6 m/s 758 mmHg 87%
    15:00 +4°C° 5.1 mm 6 m/s 757 mmHg 88%
    16:00 +4°C° 0.7 mm 6 m/s 757 mmHg 88%
    17:00 +4°C° 0.7 mm 6 m/s 757 mmHg 87%
    18:00 +6°C° 0.7 mm 5 m/s 757 mmHg 86%
    19:00 +6°C° 0.2 mm 5 m/s 757 mmHg 87%
    20:00 +6°C° 0.2 mm 5 m/s 757 mmHg 88%
    21:00 +6°C° 0.2 mm 4 m/s 757 mmHg 88%
    22:00 +6°C° 2.2 mm 4 m/s 757 mmHg 89%
    23:00 +7°C° 2.2 mm 3 m/s 757 mmHg 91%
    Arată mai mult